This is the latest recevied weather packets stored in our database for station/object KB3FKJ. If no packets are shown the sender has not sent any weather packets the latest 10 day(s).
| Time | Temp. | Humidity | Pressure | Rain* | Wind** | Luminosity | Snow |
|---|---|---|---|---|---|---|---|
| 1778069544 | 12.78° C | 95% | 1006 hPa | 1.78 mm | - | 10 W/m² | - |
| 1778069241 | 12.78° C | 95% | 1006.4 hPa | 1.27 mm | - | 24 W/m² | - |
| 1778068939 | 12.78° C | 95% | 1006.4 hPa | 3.05 mm | - | 12 W/m² | - |
| 1778068637 | 12.78° C | 95% | 1006.5 hPa | 1.78 mm | - | 11 W/m² | - |
| 1778068335 | 12.78° C | 95% | 1006.4 hPa | 1.27 mm | - | 15 W/m² | - |
| 1778068032 | 12.78° C | 95% | 1006.7 hPa | 3.05 mm | - | 11 W/m² | - |
| 1778067730 | 12.78° C | 95% | 1006.7 hPa | 1.78 mm | - | 14 W/m² | - |
| 1778067428 | 13.33° C | 95% | 1006.8 hPa | 1.27 mm | - | 9 W/m² | - |
| 1778067125 | 13.33° C | 95% | 1006.8 hPa | 3.05 mm | - | 8 W/m² | - |
| 1778066821 | 13.33° C | 95% | 1006.9 hPa | 1.78 mm | - | 6 W/m² | - |
| 1778066519 | 13.33° C | 95% | 1006.4 hPa | 0 mm | - | 4 W/m² | - |
| 1778066216 | 13.33° C | 94% | 1006.4 hPa | 0 mm | - | 3 W/m² | - |
| 1778065914 | 13.33° C | 94% | 1006.4 hPa | 0 mm | - | 7 W/m² | - |
| 1778065611 | 13.33° C | 94% | 1006.1 hPa | 0 mm | - | 8 W/m² | - |
| 1778065309 | 13.33° C | 93% | 1006.2 hPa | 0 mm | - | 12 W/m² | - |
| 1778065005 | 13.33° C | 93% | 1006.1 hPa | 0 mm | - | 8 W/m² | - |
| 1778064702 | 13.33° C | 93% | 1006.1 hPa | 0 mm | - | 8 W/m² | - |
| 1778064400 | 13.33° C | 92% | 1006 hPa | 0 mm | - | 7 W/m² | - |
| 1778064098 | 13.33° C | 91% | 1006.1 hPa | 1.78 mm | - | 4 W/m² | - |
| 1778063794 | 13.89° C | 91% | 1006 hPa | 1.78 mm | - | 4 W/m² | - |
| 1778063491 | 13.89° C | 90% | 1006.1 hPa | 0 mm | - | 4 W/m² | - |
| 1778063190 | 13.89° C | 89% | 1006 hPa | 0 mm | - | 1 W/m² | - |
| 1778062887 | 13.89° C | 88% | 1006 hPa | 0 mm | - | 1 W/m² | - |
| 1778062583 | 13.89° C | 87% | 1006.1 hPa | 0 mm | - | 1 W/m² | - |
| 1778062280 | 13.89° C | 86% | 1006 hPa | 0 mm | - | 0 W/m² | - |
* Rain latest hour (hover to see other rain measurements)
** Current wind speed in m/s (hover to see current wind gust speed)